Burley, ID

8:48 PM MDT on April 25, 2017 (GMT -0600)
Burley Municipal

Weather History for KBYI - October, 2012

Change the Weather History Date:

Thursday, October 25, 2012

  Actual Average Record
Temperature  
Mean Temperature 37 °F 45 °F  
Max Temperature 44 °F 57 °F 80 °F (1977)
Min Temperature 29 °F 32 °F 19 °F (1975)
Degree Days  
Heating Degree Days 28 20  
Month to date heating degree days 402 408  
Since 1 July heating degree days 494 678  
Cooling Degree Days 0 0  
Month to date cooling degree days 0 0  
Year to date cooling degree days 546 365  
Moisture  
Dew Point 29 °F    
Average Humidity 74    
Maximum Humidity 96    
Minimum Humidity 51    
Precipitation  
Precipitation 0.01 in 0.03 in 0.30 in (1982)
Month to date precipitation 0.68 0.60  
Year to date precipitation 7.48 7.91  
Sea Level Pressure  
Sea Level Pressure 30.23 in    
Wind  
Wind Speed 11 mph (WSW)    
Max Wind Speed 23 mph    
Max Gust Speed 29 mph    
Visibility 10 miles    
Events Rain , Snow    
T = Trace of Precipitation, MM = Missing Value Source: NWS Daily Summary

Daily Weather History Graph

Daily Weather History Graph

Search for Another Location

Airport or City:

Trip Planner

Search our weather history database for the weather conditions in past years. The results will help you decide how hot, cold, wet, or windy it might be!

Date:

Astronomy

Oct. 25, 2012 Rise Set
Actual Time 8:00 AM MDT 6:36 PM MDT
Civil Twilight 7:31 AM MDT 7:05 PM MDT
Nautical Twilight 6:58 AM MDT 7:38 PM MDT
Astronomical Twilight 6:26 AM MDT 8:11 PM MDT
Moon 4:28 PM MDT (10/25) 3:56 AM MDT (10/25)
Length of Visible Light 11h 33m
Length of Day
10h 35m
Waxing Gibbous, 85% of the Moon is Illuminated
Oct 25
Waxing Gibbous
Oct 29
Full
Nov 6
Last Quarter
Nov 13
New
Nov 20
First Quarter

Hourly Weather History & Observations

Time (MDT) Temp. Windchill Dew Point Humidity Pressure Visibility Wind Dir Wind Speed Gust Speed Precip Events Conditions
12:53 AM 35.1 °F 27.4 °F 30.9 °F 85% 30.10 in 10.0 mi WSW 10.4 mph - 0.00 in   Mostly Cloudy
1:21 AM 33.8 °F 25.8 °F 32.0 °F 93% 30.10 in 4.0 mi West 10.4 mph - 0.01 in Snow Light Snow
1:31 AM 33.8 °F 25.3 °F 32.0 °F 93% 30.10 in 7.0 mi West 11.5 mph - 0.01 in   Overcast
1:53 AM 34.0 °F 24.6 °F 32.0 °F 92% 30.12 in 10.0 mi West 13.8 mph 17.3 mph 0.01 in   Overcast
2:16 AM 33.8 °F 25.8 °F 32.0 °F 93% 30.11 in 10.0 mi West 10.4 mph 17.3 mph 0.00 in Rain Light Rain
2:44 AM 33.8 °F 27.7 °F 30.2 °F 87% 30.12 in 9.0 mi West 6.9 mph - 0.00 in   Scattered Clouds
2:53 AM 33.1 °F 26.9 °F 30.9 °F 92% 30.14 in 10.0 mi West 6.9 mph - 0.00 in   Partly Cloudy
3:53 AM 34.0 °F 28.0 °F 30.0 °F 85% 30.13 in 10.0 mi West 6.9 mph - N/A   Overcast
4:53 AM 33.1 °F 25.5 °F 28.9 °F 85% 30.13 in 10.0 mi West 9.2 mph - N/A   Mostly Cloudy
5:53 AM 30.9 °F 23.5 °F 28.0 °F 89% 30.16 in 10.0 mi WSW 8.1 mph - N/A   Partly Cloudy
6:53 AM 32.0 °F 23.6 °F 27.0 °F 82% 30.17 in 10.0 mi WSW 10.4 mph - N/A   Mostly Cloudy
7:53 AM 30.9 °F 23.5 °F 27.0 °F 85% 30.21 in 10.0 mi WSW 8.1 mph - N/A   Partly Cloudy
8:53 AM 33.1 °F 26.1 °F 28.0 °F 82% 30.22 in 10.0 mi West 8.1 mph - N/A   Scattered Clouds
10:24 AM 33.8 °F 25.3 °F 30.2 °F 87% 30.21 in 10.0 mi West 11.5 mph 23.0 mph N/A   Mostly Cloudy
10:36 AM 33.8 °F 24.3 °F 30.2 °F 87% 30.22 in 10.0 mi West 13.8 mph - N/A   Mostly Cloudy
10:53 AM 34.0 °F 25.0 °F 32.0 °F 92% 30.27 in 10.0 mi West 12.7 mph 18.4 mph N/A   Overcast
11:20 AM 35.6 °F 27.1 °F 30.2 °F 81% 30.23 in 10.0 mi West 12.7 mph 20.7 mph N/A   Overcast
11:53 AM 36.0 °F 28.0 °F 30.0 °F 79% 30.27 in 10.0 mi West 11.5 mph 21.9 mph N/A   Mostly Cloudy
12:53 PM 41.0 °F 33.5 °F 30.0 °F 65% 30.25 in 10.0 mi West 13.8 mph 25.3 mph N/A   Mostly Cloudy
2:53 PM 43.0 °F 35.4 °F 28.0 °F 56% 30.27 in 10.0 mi West 16.1 mph 25.3 mph N/A   Mostly Cloudy
3:53 PM 43.0 °F 35.7 °F 27.0 °F 53% 30.27 in 10.0 mi West 15.0 mph 27.6 mph N/A   Scattered Clouds
4:53 PM 42.1 °F 35.7 °F 28.0 °F 58% 30.30 in 10.0 mi West 11.5 mph 23.0 mph N/A   Scattered Clouds
5:53 PM 41.0 °F 33.9 °F 24.1 °F 51% 30.32 in 10.0 mi West 12.7 mph 23.0 mph N/A   Clear
6:53 PM 39.0 °F 32.8 °F 24.1 °F 55% 30.35 in 10.0 mi West 9.2 mph 18.4 mph N/A   Overcast
7:53 PM 33.1 °F 25.5 °F 26.1 °F 75% 30.40 in 10.0 mi SSW 9.2 mph - N/A   Scattered Clouds
8:53 PM 32.0 °F 23.6 °F 26.1 °F 79% 30.42 in 10.0 mi SW 10.4 mph - N/A   Clear
9:53 PM 34.0 °F 24.6 °F 26.1 °F 73% 30.41 in 10.0 mi WSW 13.8 mph - N/A   Clear
10:53 PM 32.0 °F 23.6 °F 26.1 °F 79% 30.43 in 10.0 mi SSW 10.4 mph - N/A   Clear